Location: Tel Aviv
(32.0670°N, 34.7670°E)
Time: 02:51:25
(UTC+02:00)

Transit 4A - Pass Details

Date: 10 December 2023
Orbit: 869 x 974 km, 66.8° (Epoch: 23 February)

Event Time Altitude Azimuth Distance (km) Brightness Sun altitude
Exits shadow 05:49:53 - 276° (W) 2,634 9.7 -8.7°
Reaches altitude 10° 05:50:55 10° 266° (W) 2,552 9.6 -8.5°
Maximum altitude 05:51:36 10° 259° (W) 2,533 9.7 -8.3°
Drops below altitude 10° 05:52:18 10° 252° (WSW) 2,544 9.7 -8.2°
Sets 05:57:38 0° 211° (SSW) 3,453 10.8 -7.1°
